LAN081 SCEL-SCCI

Flight info

Callsign LAN081
Flight time N/A
Altitude 35000
Route LINER6C LINER UQ805 TIGNO UQ803 NEDAX NEDAX3E
Aircraft A320/M-SDE3FGHIRWY/LB1

Departure

Time 2026-05-06 09:04
Airport Comodoro Arturo Merino Benítez International Airport (SCEL)

Arrival

Time N/A
Airport President Carlos Ibáñez International Airport (SCCI)
Time Latitude Longitude Altitude Speed Heading
2026-05-06 08:51 -33.39547 -70.79610 1565 ft 2 kts 176°
2026-05-06 08:52 -33.39533 -70.79611 1565 ft 2 kts 178°
2026-05-06 08:52 -33.39523 -70.79610 1564 ft 1 kts 140°
2026-05-06 08:52 -33.39519 -70.79615 1564 ft 1 kts 94°
2026-05-06 08:52 -33.39518 -70.79622 1564 ft 1 kts 87°
2026-05-06 08:53 -33.39518 -70.79628 1564 ft 0 kts 87°
2026-05-06 08:53 -33.39519 -70.79632 1564 ft 1 kts 88°
2026-05-06 08:53 -33.39519 -70.79639 1564 ft 1 kts 88°
2026-05-06 08:53 -33.39519 -70.79646 1564 ft 1 kts 89°
2026-05-06 08:54 -33.39519 -70.79648 1564 ft 0 kts 89°
2026-05-06 08:55 -33.39519 -70.79638 1564 ft 2 kts 89°
2026-05-06 08:55 -33.39518 -70.79618 1564 ft 2 kts 81°
2026-05-06 08:55 -33.39504 -70.79598 1564 ft 4 kts 38°
2026-05-06 08:56 -33.39469 -70.79585 1564 ft 6 kts
2026-05-06 08:56 -33.39415 -70.79587 1564 ft 9 kts 358°
2026-05-06 08:56 -33.39348 -70.79604 1564 ft 9 kts 313°
2026-05-06 08:56 -33.39334 -70.79673 1564 ft 9 kts 266°
2026-05-06 08:57 -33.39339 -70.79752 1564 ft 10 kts 267°
2026-05-06 08:57 -33.39342 -70.79841 1565 ft 11 kts 267°
2026-05-06 08:57 -33.39344 -70.79938 1565 ft 12 kts 273°
2026-05-06 08:57 -33.39309 -70.80029 1566 ft 12 kts 314°
2026-05-06 08:58 -33.39228 -70.80059 1566 ft 13 kts 356°
2026-05-06 08:58 -33.39133 -70.80066 1566 ft 14 kts 356°
2026-05-06 08:58 -33.39032 -70.80073 1567 ft 15 kts 357°
2026-05-06 08:58 -33.38925 -70.80077 1567 ft 16 kts 358°
2026-05-06 08:59 -33.38810 -70.80083 1567 ft 17 kts 357°
2026-05-06 08:59 -33.38686 -70.80090 1567 ft 18 kts 357°
2026-05-06 08:59 -33.38554 -70.80098 1567 ft 19 kts 356°
2026-05-06 08:59 -33.38425 -70.80104 1566 ft 18 kts 359°
2026-05-06 09:00 -33.38321 -70.80108 1566 ft 14 kts 358°
2026-05-06 09:00 -33.38234 -70.80114 1566 ft 16 kts 357°
2026-05-06 09:00 -33.38104 -70.80119 1566 ft 22 kts 357°
2026-05-06 09:00 -33.37964 -70.80127 1566 ft 22 kts 358°
2026-05-06 09:01 -33.37812 -70.80136 1566 ft 17 kts 357°
2026-05-06 09:01 -33.37684 -70.80144 1566 ft 19 kts 357°
2026-05-06 09:01 -33.37544 -70.80150 1566 ft 21 kts 358°
2026-05-06 09:01 -33.37389 -70.80159 1567 ft 23 kts 358°
2026-05-06 09:02 -33.37242 -70.80169 1567 ft 11 kts 357°
2026-05-06 09:02 -33.37158 -70.80177 1567 ft 14 kts 349°
2026-05-06 09:02 -33.37107 -70.80235 1568 ft 7 kts 287°
2026-05-06 09:02 -33.37104 -70.80286 1571 ft 5 kts 267°
2026-05-06 09:03 -33.37108 -70.80317 1573 ft 4 kts 255°
2026-05-06 09:03 -33.37128 -70.80354 1574 ft 8 kts 224°
2026-05-06 09:03 -33.37201 -70.80376 1573 ft 15 kts 178°
2026-05-06 09:03 -33.37471 -70.80359 1574 ft 72 kts 177°
2026-05-06 09:04 -33.38168 -70.80321 1572 ft 126 kts 177°
2026-05-06 09:04 -33.39198 -70.80266 1573 ft 169 kts 177°
2026-05-06 09:04 -33.40465 -70.80192 1798 ft 188 kts 177°
2026-05-06 09:04 -33.41782 -70.80125 2440 ft 187 kts 178°
2026-05-06 09:05 -33.43123 -70.80061 2892 ft 198 kts 178°
2026-05-06 09:05 -33.44523 -70.79992 3344 ft 205 kts 177°
2026-05-06 09:05 -33.45967 -70.79892 3813 ft 211 kts 176°
2026-05-06 09:05 -33.47448 -70.79767 4287 ft 217 kts 176°
2026-05-06 09:06 -33.49006 -70.79652 4636 ft 233 kts 177°
2026-05-06 09:06 -33.50695 -70.79570 4969 ft 253 kts 179°
2026-05-06 09:06 -33.51898 -70.79524 5154 ft 269 kts 178°
2026-05-06 09:06 -33.53816 -70.79434 5663 ft 282 kts 177°
2026-05-06 09:07 -33.55805 -70.79270 6297 ft 291 kts 176°
2026-05-06 09:07 -33.57846 -70.79054 6916 ft 298 kts 176°
2026-05-06 09:07 -33.59931 -70.78814 7551 ft 304 kts 176°
2026-05-06 09:07 -33.62061 -70.78568 8185 ft 311 kts 176°
2026-05-06 09:08 -33.64229 -70.78320 8850 ft 316 kts 177°
2026-05-06 09:08 -33.66462 -70.78067 9511 ft 321 kts 178°
2026-05-06 09:08 -33.68710 -70.77817 10108 ft 328 kts 178°
2026-05-06 09:08 -33.71055 -70.77564 10275 ft 350 kts 178°
2026-05-06 09:09 -33.73555 -70.77302 10402 ft 371 kts 178°
2026-05-06 09:09 -33.76168 -70.77025 10776 ft 381 kts 178°
2026-05-06 09:09 -33.78828 -70.76735 11343 ft 386 kts 178°
2026-05-06 09:09 -33.81514 -70.76440 11934 ft 389 kts 178°
2026-05-06 09:10 -33.84218 -70.76143 12537 ft 392 kts 178°
2026-05-06 09:10 -33.86949 -70.75845 13132 ft 396 kts 178°
2026-05-06 09:10 -33.89703 -70.75545 13717 ft 399 kts 179°
2026-05-06 09:10 -33.92484 -70.75359 14228 ft 400 kts 186°
2026-05-06 09:11 -33.95245 -70.75665 14731 ft 400 kts 193°
2026-05-06 09:11 -33.98011 -70.76122 15256 ft 402 kts 193°
2026-05-06 09:11 -34.00785 -70.76590 15775 ft 403 kts 194°
2026-05-06 09:11 -34.03569 -70.77063 16274 ft 405 kts 194°
2026-05-06 09:12 -34.06370 -70.77540 16790 ft 408 kts 194°
2026-05-06 09:12 -34.09189 -70.78022 17326 ft 410 kts 195°
2026-05-06 09:12 -34.12023 -70.78504 17876 ft 413 kts 195°
2026-05-06 09:12 -34.14876 -70.78989 18408 ft 415 kts 195°
2026-05-06 09:13 -34.17748 -70.79478 18895 ft 418 kts 195°
2026-05-06 09:13 -34.20638 -70.79968 19396 ft 421 kts 195°
2026-05-06 09:13 -34.23541 -70.80455 19894 ft 423 kts 196°
2026-05-06 09:13 -34.26468 -70.80948 20397 ft 426 kts 196°
2026-05-06 09:14 -34.29412 -70.81447 20885 ft 428 kts 197°
2026-05-06 09:14 -34.32372 -70.81951 21338 ft 431 kts 197°
2026-05-06 09:14 -34.35395 -70.82464 21776 ft 434 kts 197°
2026-05-06 09:14 -34.38393 -70.82973 22210 ft 437 kts 197°
2026-05-06 09:15 -34.41411 -70.83484 22641 ft 439 kts 197°
2026-05-06 09:15 -34.44452 -70.83999 23056 ft 443 kts 197°
2026-05-06 09:15 -34.47507 -70.84517 23422 ft 445 kts 198°
2026-05-06 09:15 -34.50583 -70.85039 23823 ft 447 kts 198°
2026-05-06 09:16 -34.53671 -70.85565 24190 ft 449 kts 198°
2026-05-06 09:16 -34.56214 -70.86000 24479 ft 451 kts 198°
2026-05-06 09:16 -34.57944 -70.86291 24653 ft 453 kts 198°
2026-05-06 09:17 -34.61074 -70.86823 24989 ft 455 kts 198°
2026-05-06 09:17 -34.64216 -70.87363 25295 ft 457 kts 199°
2026-05-06 09:17 -34.67374 -70.87908 25608 ft 459 kts 199°
2026-05-06 09:17 -34.70544 -70.88457 25908 ft 461 kts 199°
2026-05-06 09:18 -34.73730 -70.89009 26225 ft 463 kts 199°
2026-05-06 09:18 -34.76928 -70.89559 26536 ft 466 kts 199°
2026-05-06 09:18 -34.80152 -70.90110 26843 ft 469 kts 199°
2026-05-06 09:18 -34.83392 -70.90662 27154 ft 471 kts 199°
2026-05-06 09:19 -34.86645 -70.91217 27457 ft 474 kts 199°
2026-05-06 09:19 -34.88512 -70.91537 27649 ft 475 kts 200°
2026-05-06 09:19 -34.89810 -70.91761 27804 ft 475 kts 200°
2026-05-06 09:19 -34.93079 -70.92319 28285 ft 474 kts 200°
2026-05-06 09:20 -34.96339 -70.92869 28675 ft 472 kts 200°
2026-05-06 09:20 -34.99595 -70.93421 29055 ft 472 kts 200°
2026-05-06 09:20 -35.02894 -70.93985 29491 ft 472 kts 201°
2026-05-06 09:20 -35.06141 -70.94545 29919 ft 471 kts 201°
2026-05-06 09:21 -35.09388 -70.95107 30314 ft 471 kts 201°
2026-05-06 09:21 -35.12628 -70.95669 30717 ft 470 kts 201°
2026-05-06 09:21 -35.15854 -70.96229 31118 ft 468 kts 201°
2026-05-06 09:21 -35.19078 -70.96792 31504 ft 467 kts 201°
2026-05-06 09:22 -35.21798 -70.97265 31803 ft 466 kts 202°
2026-05-06 09:22 -35.22701 -70.97423 31911 ft 466 kts 202°
2026-05-06 09:22 -35.25906 -70.97983 32327 ft 465 kts 202°
2026-05-06 09:22 -35.29098 -70.98539 32670 ft 464 kts 202°
2026-05-06 09:23 -35.32294 -70.99094 33042 ft 463 kts 202°
2026-05-06 09:23 -35.35481 -70.99644 33356 ft 463 kts 202°
2026-05-06 09:23 -35.38673 -71.00194 33682 ft 462 kts 202°
2026-05-06 09:23 -35.41853 -71.00743 34033 ft 461 kts 202°
2026-05-06 09:24 -35.45029 -71.01294 34347 ft 460 kts 202°
2026-05-06 09:24 -35.47667 -71.01755 34582 ft 460 kts 203°
2026-05-06 09:24 -35.49994 -71.02159 34754 ft 460 kts 202°
2026-05-06 09:24 -35.52390 -71.02578 34909 ft 460 kts 202°
2026-05-06 09:25 -35.55330 -71.03099 34959 ft 462 kts 202°
2026-05-06 09:25 -35.61777 -71.04254 34963 ft 474 kts 202°
2026-05-06 09:26 -35.68110 -71.05372 34961 ft 478 kts 201°
2026-05-06 09:26 -35.73418 -71.06286 34962 ft 479 kts 201°
2026-05-06 09:27 -35.80018 -71.07427 34959 ft 479 kts 201°
2026-05-06 09:27 -35.86609 -71.08586 34957 ft 478 kts 201°
2026-05-06 09:28 -35.93209 -71.09752 34958 ft 479 kts 201°
2026-05-06 09:28 -35.99804 -71.10918 34949 ft 478 kts 201°
2026-05-06 09:29 -36.06403 -71.12081 34964 ft 480 kts 200°
2026-05-06 09:29 -36.13017 -71.13247 34968 ft 480 kts 200°
2026-05-06 09:30 -36.19623 -71.14426 34960 ft 480 kts 200°
2026-05-06 09:30 -36.26279 -71.15627 34980 ft 481 kts 200°
2026-05-06 09:31 -36.32892 -71.16803 34964 ft 480 kts 200°
2026-05-06 09:31 -36.39505 -71.17975 34969 ft 480 kts 199°
2026-05-06 09:32 -36.46122 -71.19160 34969 ft 480 kts 199°
2026-05-06 09:32 -36.52729 -71.20341 34971 ft 480 kts 199°
2026-05-06 09:33 -36.59342 -71.21534 34980 ft 481 kts 199°
2026-05-06 09:33 -36.65967 -71.22723 34966 ft 481 kts 198°
2026-05-06 09:34 -36.72583 -71.23915 34959 ft 480 kts 198°
2026-05-06 09:34 -36.79205 -71.25106 34962 ft 481 kts 198°
2026-05-06 09:35 -36.85823 -71.26300 34963 ft 481 kts 198°
2026-05-06 09:35 -36.92436 -71.27495 34953 ft 480 kts 198°
2026-05-06 09:36 -36.99044 -71.28700 34955 ft 480 kts 198°
2026-05-06 09:36 -37.05695 -71.29916 34950 ft 480 kts 197°
2026-05-06 09:37 -37.12303 -71.31113 34944 ft 480 kts 197°
2026-05-06 09:37 -37.17788 -71.32111 34935 ft 479 kts 197°
2026-05-06 09:38 -37.24381 -71.33318 34928 ft 479 kts 197°
2026-05-06 09:38 -37.30970 -71.34535 34925 ft 479 kts 197°
2026-05-06 09:39 -37.37563 -71.35738 34916 ft 479 kts 196°
2026-05-06 09:39 -37.44160 -71.36934 34910 ft 478 kts 196°
2026-05-06 09:40 -37.50741 -71.38139 34907 ft 477 kts 196°
2026-05-06 09:40 -37.60601 -71.39957 34890 ft 478 kts 196°
2026-05-06 09:41 -37.67176 -71.41178 34891 ft 477 kts 195°
2026-05-06 09:41 -37.73748 -71.42398 34884 ft 477 kts 195°
2026-05-06 09:42 -37.80355 -71.43620 34892 ft 477 kts 195°
2026-05-06 09:42 -37.86913 -71.44837 34886 ft 476 kts 195°
2026-05-06 09:43 -37.93468 -71.46053 34891 ft 476 kts 195°
2026-05-06 09:43 -38.00013 -71.47268 34886 ft 475 kts 195°
2026-05-06 09:44 -38.06558 -71.48501 34882 ft 475 kts 195°
2026-05-06 09:44 -38.13091 -71.49725 34883 ft 475 kts 195°
2026-05-06 09:45 -38.19623 -71.50951 34882 ft 475 kts 195°
2026-05-06 09:45 -38.26158 -71.52173 34870 ft 474 kts 194°
2026-05-06 09:46 -38.32686 -71.53398 34868 ft 474 kts 194°
2026-05-06 09:46 -38.39210 -71.54627 34866 ft 474 kts 194°
2026-05-06 09:47 -38.45741 -71.55859 34861 ft 474 kts 194°
2026-05-06 09:47 -38.52266 -71.57094 34859 ft 474 kts 194°
2026-05-06 09:48 -38.58787 -71.58328 34850 ft 473 kts 194°
2026-05-06 09:48 -38.65300 -71.59565 34855 ft 474 kts 194°
2026-05-06 09:49 -38.71817 -71.60806 34852 ft 473 kts 194°
2026-05-06 09:49 -38.78368 -71.62055 34849 ft 473 kts 194°
2026-05-06 09:50 -38.84872 -71.63295 34840 ft 472 kts 194°
2026-05-06 09:50 -38.91369 -71.64536 34842 ft 472 kts 194°
2026-05-06 09:51 -38.97871 -71.65793 34840 ft 473 kts 194°
2026-05-06 09:51 -39.04377 -71.67039 34832 ft 472 kts 193°
2026-05-06 09:52 -39.10881 -71.68285 34838 ft 472 kts 193°
2026-05-06 09:52 -39.17383 -71.69543 34836 ft 472 kts 193°
2026-05-06 09:53 -39.23886 -71.70787 34835 ft 472 kts 193°
2026-05-06 09:53 -39.30385 -71.72031 34832 ft 472 kts 193°
2026-05-06 09:54 -39.36871 -71.73299 34829 ft 472 kts 193°
2026-05-06 09:54 -39.43361 -71.74567 34824 ft 472 kts 193°
2026-05-06 09:55 -39.49895 -71.75835 34829 ft 472 kts 193°
2026-05-06 09:55 -39.56387 -71.77101 34820 ft 472 kts 193°
2026-05-06 09:56 -39.62884 -71.78370 34821 ft 472 kts 193°
2026-05-06 09:56 -39.69375 -71.79638 34810 ft 472 kts 193°
2026-05-06 09:57 -39.75868 -71.80913 34815 ft 472 kts 193°
2026-05-06 09:57 -39.82357 -71.82182 34807 ft 472 kts 193°
2026-05-06 09:58 -39.88846 -71.83455 34796 ft 471 kts 193°
2026-05-06 09:58 -39.95332 -71.84740 34807 ft 471 kts 193°
2026-05-06 09:59 -40.01820 -71.86027 34802 ft 471 kts 193°
2026-05-06 09:59 -40.08305 -71.87309 34804 ft 472 kts 193°
2026-05-06 10:00 -40.14795 -71.88589 34800 ft 471 kts 193°
2026-05-06 10:00 -40.21278 -71.89876 34797 ft 471 kts 193°
2026-05-06 10:01 -40.27763 -71.91168 34798 ft 471 kts 193°
2026-05-06 10:01 -40.34292 -71.92470 34800 ft 471 kts 193°
2026-05-06 10:02 -40.40776 -71.93767 34791 ft 471 kts 193°
2026-05-06 10:02 -40.47259 -71.95068 34796 ft 472 kts 193°
2026-05-06 10:03 -40.53750 -71.96375 34803 ft 472 kts 193°
2026-05-06 10:03 -40.60244 -71.97674 34802 ft 472 kts 193°
2026-05-06 10:04 -40.66741 -71.98975 34794 ft 472 kts 194°
2026-05-06 10:04 -40.73234 -72.00291 34792 ft 472 kts 193°
2026-05-06 10:05 -40.79731 -72.01598 34795 ft 473 kts 193°
2026-05-06 10:05 -40.86233 -72.02911 34792 ft 473 kts 193°
2026-05-06 10:06 -40.92740 -72.04238 34799 ft 473 kts 193°
2026-05-06 10:06 -40.99246 -72.05569 34821 ft 474 kts 193°
2026-05-06 10:07 -41.05765 -72.06891 34810 ft 473 kts 193°
2026-05-06 10:07 -41.12276 -72.08216 34827 ft 473 kts 193°
2026-05-06 10:08 -41.18790 -72.09549 34822 ft 474 kts 193°
2026-05-06 10:08 -41.25304 -72.10894 34831 ft 474 kts 193°
2026-05-06 10:09 -41.31875 -72.12181 34817 ft 475 kts 192°
2026-05-06 10:09 -41.38463 -72.13182 34825 ft 477 kts 191°
2026-05-06 10:10 -41.43950 -72.13940 34828 ft 477 kts 191°
2026-05-06 10:10 -41.50543 -72.14922 34836 ft 477 kts 192°
2026-05-06 10:11 -41.57139 -72.15968 34838 ft 477 kts 192°
2026-05-06 10:11 -41.63737 -72.17028 34851 ft 478 kts 192°
2026-05-06 10:12 -41.70343 -72.18070 34854 ft 478 kts 192°
2026-05-06 10:12 -41.76953 -72.19092 34862 ft 478 kts 192°
2026-05-06 10:13 -41.83568 -72.20116 34852 ft 478 kts 193°
2026-05-06 10:13 -41.90176 -72.21169 34859 ft 478 kts 193°
2026-05-06 10:14 -41.96783 -72.22224 34862 ft 478 kts 193°
2026-05-06 10:14 -42.03395 -72.23271 34863 ft 478 kts 193°
2026-05-06 10:15 -42.10046 -72.24320 34870 ft 478 kts 193°
2026-05-06 10:15 -42.16655 -72.25367 34871 ft 478 kts 193°
2026-05-06 10:16 -42.23265 -72.26424 34868 ft 478 kts 194°
2026-05-06 10:16 -42.29873 -72.27486 34875 ft 479 kts 194°
2026-05-06 10:17 -42.36492 -72.28542 34868 ft 479 kts 194°
2026-05-06 10:17 -42.43103 -72.29603 34875 ft 478 kts 194°
2026-05-06 10:18 -42.49714 -72.30660 34880 ft 479 kts 194°
2026-05-06 10:18 -42.56330 -72.31731 34879 ft 478 kts 194°
2026-05-06 10:19 -42.62941 -72.32801 34886 ft 478 kts 195°
2026-05-06 10:19 -42.69553 -72.33861 34892 ft 478 kts 194°
2026-05-06 10:20 -42.76154 -72.34919 34894 ft 478 kts 195°
2026-05-06 10:20 -42.82751 -72.35991 34896 ft 477 kts 195°
2026-05-06 10:21 -42.89396 -72.37083 34900 ft 477 kts 195°
2026-05-06 10:21 -42.95984 -72.38168 34908 ft 477 kts 195°
2026-05-06 10:22 -43.02561 -72.39236 34896 ft 475 kts 195°
2026-05-06 10:22 -43.09113 -72.40294 34909 ft 475 kts 195°
2026-05-06 10:23 -43.15677 -72.41384 34914 ft 475 kts 196°
2026-05-06 10:23 -43.22228 -72.42474 34917 ft 474 kts 196°
2026-05-06 10:24 -43.28768 -72.43550 34923 ft 473 kts 196°
2026-05-06 10:24 -43.35290 -72.44627 34925 ft 472 kts 196°
2026-05-06 10:25 -43.41808 -72.45700 34928 ft 471 kts 196°
2026-05-06 10:25 -43.48314 -72.46783 34928 ft 470 kts 197°
2026-05-06 10:26 -43.54811 -72.47869 34933 ft 471 kts 196°
2026-05-06 10:26 -43.61311 -72.48944 34938 ft 470 kts 196°
2026-05-06 10:27 -43.67813 -72.50029 34909 ft 470 kts 193°
2026-05-06 10:27 -43.74297 -72.51120 34907 ft 470 kts 193°
2026-05-06 10:28 -43.80793 -72.52206 34909 ft 471 kts 193°
2026-05-06 10:28 -43.87305 -72.53299 34921 ft 472 kts 193°
2026-05-06 10:29 -43.93876 -72.54413 34934 ft 473 kts 193°
2026-05-06 10:29 -44.00413 -72.55519 34941 ft 474 kts 193°
2026-05-06 10:30 -44.06963 -72.56631 34952 ft 474 kts 193°
2026-05-06 10:30 -44.13514 -72.57752 34956 ft 475 kts 193°
2026-05-06 10:31 -44.20076 -72.58867 34960 ft 475 kts 193°
2026-05-06 10:31 -44.26635 -72.59973 34961 ft 475 kts 193°
2026-05-06 10:32 -44.33201 -72.61088 34963 ft 475 kts 193°
2026-05-06 10:32 -44.39759 -72.62211 34963 ft 475 kts 193°
2026-05-06 10:33 -44.46323 -72.63339 34975 ft 475 kts 193°
2026-05-06 10:33 -44.52886 -72.64473 34964 ft 475 kts 193°
2026-05-06 10:34 -44.59446 -72.65605 34970 ft 475 kts 193°
2026-05-06 10:34 -44.66005 -72.66732 34976 ft 475 kts 193°
2026-05-06 10:35 -44.72551 -72.67862 34980 ft 474 kts 193°
2026-05-06 10:35 -44.79143 -72.69003 34982 ft 474 kts 193°
2026-05-06 10:36 -44.85680 -72.70137 34990 ft 473 kts 193°
2026-05-06 10:36 -44.92213 -72.71273 34991 ft 473 kts 193°
2026-05-06 10:37 -44.98743 -72.72414 34999 ft 472 kts 193°
2026-05-06 10:37 -45.05267 -72.73552 35003 ft 472 kts 193°
2026-05-06 10:38 -45.11786 -72.74688 35002 ft 472 kts 193°
2026-05-06 10:38 -45.18296 -72.75838 35001 ft 471 kts 193°
2026-05-06 10:39 -45.24801 -72.76997 35002 ft 471 kts 193°
2026-05-06 10:39 -45.31309 -72.78138 35005 ft 471 kts 193°
2026-05-06 10:40 -45.37814 -72.79283 35006 ft 471 kts 193°
2026-05-06 10:40 -45.44317 -72.80443 35012 ft 471 kts 193°
2026-05-06 10:41 -45.50815 -72.81603 35009 ft 471 kts 193°
2026-05-06 10:41 -45.57322 -72.82765 35012 ft 471 kts 193°
2026-05-06 10:42 -45.63826 -72.83924 35015 ft 471 kts 193°
2026-05-06 10:42 -45.70329 -72.85090 35023 ft 471 kts 193°
2026-05-06 10:43 -45.76835 -72.86253 35025 ft 471 kts 193°
2026-05-06 10:44 -45.85535 -72.87818 35031 ft 471 kts 193°
2026-05-06 10:44 -45.92041 -72.88990 35028 ft 471 kts 193°
2026-05-06 10:45 -45.98547 -72.90164 35035 ft 471 kts 193°
2026-05-06 10:45 -46.05050 -72.91341 35033 ft 471 kts 193°
2026-05-06 10:46 -46.11552 -72.92533 35032 ft 471 kts 193°
2026-05-06 10:46 -46.18057 -72.93716 35037 ft 471 kts 193°
2026-05-06 10:47 -46.24558 -72.94890 35026 ft 471 kts 193°
2026-05-06 10:47 -46.31054 -72.96073 35025 ft 471 kts 193°
2026-05-06 10:48 -46.37549 -72.97274 35024 ft 471 kts 193°
2026-05-06 10:48 -46.44051 -72.98479 35032 ft 471 kts 193°
2026-05-06 10:49 -46.50554 -72.99682 35030 ft 471 kts 193°
2026-05-06 10:49 -46.57105 -73.00890 35032 ft 472 kts 193°
2026-05-06 10:50 -46.63616 -73.02092 35025 ft 471 kts 193°
2026-05-06 10:50 -46.70115 -73.03304 35023 ft 471 kts 193°
2026-05-06 10:51 -46.76621 -73.04517 35024 ft 471 kts 193°
2026-05-06 10:51 -46.83128 -73.05730 35021 ft 471 kts 193°
2026-05-06 10:52 -46.89631 -73.06941 35024 ft 471 kts 193°
2026-05-06 10:52 -46.96127 -73.08157 35023 ft 471 kts 193°
2026-05-06 10:53 -47.02623 -73.09371 35024 ft 471 kts 193°
2026-05-06 10:53 -47.09118 -73.10596 35025 ft 470 kts 193°
2026-05-06 10:54 -47.15598 -73.11829 35020 ft 469 kts 193°
2026-05-06 10:54 -47.22073 -73.13062 35028 ft 469 kts 193°
2026-05-06 10:55 -47.28537 -73.14299 35024 ft 469 kts 193°
2026-05-06 10:55 -47.35011 -73.15540 35022 ft 469 kts 193°
2026-05-06 10:56 -47.41478 -73.16780 35029 ft 469 kts 193°
2026-05-06 10:56 -47.47941 -73.18009 35028 ft 468 kts 193°
2026-05-06 10:57 -47.54403 -73.19249 35033 ft 468 kts 193°
2026-05-06 10:57 -47.60892 -73.20496 35032 ft 467 kts 193°
2026-05-06 10:58 -47.67335 -73.21744 35033 ft 466 kts 193°